Location: Peebles
(55.6412°N, 3.1714°W)
Time: 22:24:57
(UTC+00:00)

deb Agena D - Pass Details

Date: 25 September 2023
Orbit: 794 x 979 km, 99.8° (Epoch: 28 November)

Event Time Altitude Azimuth Distance (km) Brightness Sun altitude
Rises 02:48:19 0° 16° (NNE) 3,695 10.6 -31.2°
Reaches altitude 10° 02:50:58 10° 9° (N) 2,745 9.6 -31.0°
Enters shadow 02:56:29 37° 306° (NW) 1,478 7.4 -30.6°
